Frankfort, KY

8:24 AM EST on February 24, 2017 (GMT -0500)
Capital City

Weather History for KFFT - December, 2013

Change the Weather History Date:

Thursday, December 5, 2013

  Actual Average Record
Temperature  
Mean Temperature 50 °F 38 °F  
Max Temperature 66 °F 48 °F 73 °F (1998)
Min Temperature 34 °F 29 °F 10 °F (2002)
Degree Days  
Heating Degree Days 15 27  
Month to date heating degree days 89 130  
Since 1 July heating degree days 1132 1041  
Cooling Degree Days 0 0  
Month to date cooling degree days 0 0  
Year to date cooling degree days 1127 1155  
Moisture  
Dew Point 48 °F    
Average Humidity 86    
Maximum Humidity 93    
Minimum Humidity 78    
Precipitation  
Precipitation 1.03 in 0.15 in 2.80 in (1922)
Month to date precipitation 1.03 0.71  
Year to date precipitation 46.25 42.32  
Sea Level Pressure  
Sea Level Pressure 29.95 in    
Wind  
Wind Speed 9 mph (NW)    
Max Wind Speed 18 mph    
Max Gust Speed 25 mph    
Visibility 6 miles    
Events Fog , Rain    
T = Trace of Precipitation, MM = Missing Value Source: NWS Daily Summary

Daily Weather History Graph

Daily Weather History Graph

Search for Another Location

Airport or City:

Trip Planner

Search our weather history database for the weather conditions in past years. The results will help you decide how hot, cold, wet, or windy it might be!

Date:

Astronomy

Dec. 05, 2013 Rise Set
Actual Time 7:41 AM EST 5:19 PM EST
Civil Twilight 7:11 AM EST 5:48 PM EST
Nautical Twilight 6:39 AM EST 6:21 PM EST
Astronomical Twilight 6:07 AM EST 6:53 PM EST
Moon 10:01 AM EST (12/5) 8:37 PM EST (12/5)
Length of Visible Light 10h 36m
Length of Day
9h 38m
Waxing Crescent, 10% of the Moon is Illuminated
Dec 5
Waxing Crescent
Dec 9
First Quarter
Dec 17
Full
Dec 25
Last Quarter
Jan 1
New

Hourly Weather History & Observations

Time (EST) Temp. Windchill Dew Point Humidity Pressure Visibility Wind Dir Wind Speed Gust Speed Precip Events Conditions
12:53 AM 64.9 °F - 57.9 °F 78% 29.82 in 9.0 mi SSW 11.5 mph - N/A   Overcast
1:53 AM 64.9 °F - 57.9 °F 78% 29.80 in 9.0 mi South 10.4 mph - N/A   Mostly Cloudy
2:53 AM 64.9 °F - 59.0 °F 81% 29.81 in 9.0 mi South 11.5 mph - N/A   Mostly Cloudy
3:33 AM 64.4 °F - 60.8 °F 88% 29.83 in 9.0 mi SSW 6.9 mph - 0.02 in   Overcast
3:53 AM 64.9 °F - 60.1 °F 84% 29.81 in 9.0 mi South 10.4 mph - 0.02 in   Overcast
4:12 AM 66.2 °F - 60.8 °F 83% 29.82 in 10.0 mi South 9.2 mph - N/A   Overcast
4:42 AM 66.2 °F - 60.8 °F 83% 29.82 in 10.0 mi South 11.5 mph - N/A   Overcast
4:53 AM 66.0 °F - 61.0 °F 84% 29.81 in 10.0 mi South 12.7 mph 17.3 mph N/A   Overcast
5:53 AM 66.0 °F - 61.0 °F 84% 29.81 in 10.0 mi South 10.4 mph - N/A   Overcast
6:29 AM 64.4 °F - 60.8 °F 88% 29.83 in 10.0 mi South 9.2 mph - N/A   Overcast
6:53 AM 64.9 °F - 61.0 °F 87% 29.83 in 9.0 mi South 10.4 mph - N/A   Overcast
7:53 AM 64.0 °F - 62.1 °F 93% 29.83 in 7.0 mi SSW 8.1 mph - 0.03 in   Overcast
8:25 AM 64.4 °F - 62.6 °F 94% 29.84 in 1.5 mi South 5.8 mph - 0.11 in Rain Light Rain
8:36 AM 64.4 °F - 62.6 °F 94% 29.84 in 4.0 mi South 10.4 mph 18.4 mph 0.11 in Rain Light Rain
8:44 AM 64.4 °F - 62.6 °F 94% 29.85 in 5.0 mi Variable 6.9 mph - 0.11 in   Overcast
8:50 AM 64.4 °F - 62.6 °F 94% 29.86 in 1.5 mi WNW 8.1 mph - 0.19 in Rain Heavy Rain
8:53 AM 64.0 °F - 63.0 °F 96% 29.86 in 0.5 mi West 9.2 mph - 0.35 in Fog , Rain Heavy Rain
9:05 AM 62.6 °F - 62.6 °F 100% 29.88 in 1.5 mi WNW 12.7 mph 21.9 mph 0.14 in Rain Rain
9:12 AM 62.6 °F - 60.8 °F 94% 29.88 in 2.5 mi West 11.5 mph 21.9 mph 0.16 in Rain Rain
9:38 AM 57.2 °F - 55.4 °F 94% 29.90 in 1.8 mi NNW 15.0 mph 21.9 mph 0.26 in Rain Light Rain
9:42 AM 55.4 °F - 53.6 °F 94% 29.90 in 3.0 mi NW 12.7 mph 21.9 mph 0.26 in Rain Light Rain
9:53 AM 54.0 °F - 52.0 °F 93% 29.91 in 7.0 mi NW 10.4 mph 19.6 mph 0.26 in   Overcast
10:03 AM 53.6 °F - 51.8 °F 94% 29.92 in 6.0 mi WNW 9.2 mph - N/A   Overcast
10:24 AM 53.6 °F - 51.8 °F 94% 29.92 in 5.0 mi NW 5.8 mph - N/A   Overcast
10:37 AM 53.6 °F - 51.8 °F 94% 29.94 in 1.5 mi WNW 6.9 mph - 0.05 in Rain Rain
10:48 AM 53.6 °F - 51.8 °F 94% 29.94 in 3.0 mi NW 5.8 mph - 0.05 in Rain Light Rain
10:53 AM 53.1 °F - 52.0 °F 96% 29.95 in 3.0 mi NW 8.1 mph - 0.05 in Rain Light Rain
11:05 AM 53.6 °F - 51.8 °F 94% 29.96 in 2.0 mi Variable 3.5 mph - 0.01 in Rain Light Rain
11:51 AM 50.0 °F - 48.2 °F 94% 29.98 in 5.0 mi NNW 11.5 mph - 0.02 in Rain Light Rain
11:53 AM 48.9 °F - 46.9 °F 93% 29.97 in 6.0 mi NNW 8.1 mph - 0.02 in Rain Light Rain
12:53 PM 48.0 °F - 46.9 °F 96% 29.97 in 5.0 mi WNW 6.9 mph - N/A   Overcast
1:14 PM 48.2 °F - 44.6 °F 87% 29.96 in 7.0 mi NW 6.9 mph - N/A   Overcast
1:35 PM 46.4 °F 42.9 °F 44.6 °F 93% 29.96 in 7.0 mi WNW 6.9 mph - N/A   Overcast
1:53 PM 46.9 °F - 44.1 °F 90% 29.96 in 7.0 mi NW 9.2 mph - N/A   Overcast
2:00 PM 46.4 °F 42.9 °F 44.6 °F 93% 29.97 in 7.0 mi WNW 6.9 mph - N/A   Overcast
2:21 PM 46.4 °F 41.1 °F 42.8 °F 87% 29.96 in 7.0 mi NNW 11.5 mph 16.1 mph N/A   Overcast
2:29 PM 46.4 °F 42.9 °F 42.8 °F 87% 29.96 in 7.0 mi NNW 6.9 mph - N/A   Overcast
2:42 PM 46.4 °F 42.9 °F 42.8 °F 87% 29.95 in 8.0 mi NNW 6.9 mph - N/A   Overcast
2:53 PM 46.0 °F 42.5 °F 42.1 °F 86% 29.95 in 8.0 mi NNW 6.9 mph - N/A   Overcast
3:53 PM 46.0 °F 43.9 °F 43.0 °F 89% 29.99 in 4.0 mi NNW 4.6 mph - 0.01 in Rain Light Rain
4:41 PM 44.6 °F 38.4 °F 39.2 °F 81% 30.03 in 7.0 mi NNW 12.7 mph - 0.01 in   Overcast
4:53 PM 44.1 °F 39.0 °F 39.0 °F 82% 30.04 in 8.0 mi North 9.2 mph 17.3 mph 0.01 in   Overcast
5:21 PM 42.8 °F 36.6 °F 37.4 °F 81% 30.05 in 10.0 mi North 11.5 mph - N/A   Overcast
5:53 PM 39.9 °F 32.1 °F 36.0 °F 86% 30.05 in 7.0 mi NNW 13.8 mph 19.6 mph 0.01 in Rain Light Rain
6:14 PM 37.4 °F 32.8 °F 35.6 °F 93% 30.06 in 2.5 mi NNW 5.8 mph - 0.08 in Rain Rain
6:24 PM 37.4 °F 34.9 °F 35.6 °F 93% 30.06 in 3.0 mi North 3.5 mph - 0.12 in Rain Heavy Rain
6:37 PM 37.4 °F 32.8 °F 35.6 °F 93% 30.07 in 4.0 mi NNW 5.8 mph - 0.14 in Rain Light Rain
6:53 PM 37.9 °F 34.4 °F 36.0 °F 93% 30.06 in 5.0 mi Variable 4.6 mph - 0.15 in Rain Light Rain
7:09 PM 37.4 °F 32.8 °F 35.6 °F 93% 30.06 in 5.0 mi Variable 5.8 mph - 0.00 in Rain Light Rain
7:53 PM 37.0 °F 30.4 °F 36.0 °F 96% 30.06 in 4.0 mi NNW 9.2 mph - 0.04 in Rain Light Rain
8:17 PM 37.4 °F 32.8 °F 35.6 °F 93% 30.06 in 5.0 mi North 5.8 mph - 0.02 in Rain Light Rain
8:24 PM 37.4 °F 32.1 °F 35.6 °F 93% 30.06 in 4.0 mi NNW 6.9 mph - 0.02 in Rain Light Rain
8:53 PM 37.0 °F 30.4 °F 35.1 °F 93% 30.09 in 6.0 mi NNW 9.2 mph - 0.02 in   Overcast
9:53 PM 35.1 °F 27.9 °F 33.1 °F 92% 30.12 in 8.0 mi NNW 9.2 mph 19.6 mph 0.04 in   Overcast
10:53 PM 35.1 °F 30.1 °F 33.1 °F 92% 30.12 in 10.0 mi North 5.8 mph - N/A   Overcast
11:16 PM 35.6 °F 29.9 °F 33.8 °F 93% 30.12 in 9.0 mi North 6.9 mph - N/A   Overcast
11:31 PM 35.6 °F 30.7 °F 33.8 °F 93% 30.14 in 8.0 mi NNW 5.8 mph - N/A   Overcast
11:53 PM 34.0 °F 27.2 °F 33.1 °F 96% 30.13 in 5.0 mi NNE 8.1 mph - 0.02 in Rain Light Rain